User: anonymous   Login
Location: Unspecified
(0.0000°N, 0.0000°E)
Time: 10:54:44
(UTC+00:00)
Language:

STARLINK-34619 - Orbit

View from above orbital plane
View from above orbital plane
View from above satellite
View from above satellite

Ground track
Ground track

The orbit is defined by the following mean orbital elements,

1 64737U          26145.40913510 +.00000000 +00000-0 -11888-3 0 00001
2 64737  53.1578 184.9917 0001121  84.1497 275.9632 15.30180703    07
Epoch (UTC): 25 May 2026 09:49:09
Eccentricity: 0.0001121
inclination: 53.1578°
perigee height: 475 km
apogee height: 476 km
right ascension of ascending node: 184.9917°
argument of perigee: 84.1497°
revolutions per day: 15.30180703
mean anomaly at epoch: 275.9632°

The dashed part of the orbit path shows where the satellite is in the earth's shadow,  

DLR